Weather History for Truckee-Tahoe, CA

Change the Weather History Date:

Monday, January 21, 2013

  Actual Average Record
Temperature  
Mean Temperature 18 °F -  
Max Temperature 37 °F 40 °F 64 °F (1950)
Min Temperature 0 °F 14 °F -4 °F (1966)
Degree Days  
Heating Degree Days 46    
Moisture  
Dew Point 8 °F    
Average Humidity 76    
Maximum Humidity 93    
Minimum Humidity 38    
Precipitation  
Precipitation 0.00 in - - ()
Sea Level Pressure  
Sea Level Pressure 30.34 in    
Wind  
Wind Speed 1 mph (SSE)    
Max Wind Speed 6 mph    
Max Gust Speed -    
Visibility 9 miles    
Events      
Averages and records for this station are not official NWS values.
T = Trace of Precipitation, MM = Missing Value Source: NWS Daily Summary

Daily Weather History Graph

Daily Weather History Graph

Search for Another Location

Airport:

Trip Planner

Search our weather history database for the weather conditions in past years. The results will help you decide how hot, cold, wet, or windy it might be!

Date:

Astronomy

Jan. 21, 2013 Rise Set
Actual Time 7:15 AM PST 5:08 PM PST
Civil Twilight 6:46 AM PST 5:37 PM PST
Nautical Twilight 6:13 AM PST 6:10 PM PST
Astronomical Twilight 5:42 AM PST 6:42 PM PST
Moon 12:52 PM PST (1/21) 2:48 AM PST (1/21)
Length of Visible Light 10h 51m
Length of Day
9h 53m
Waxing Gibbous, 76% of the Moon is Illuminated
Jan 21
Waxing Gibbous
Jan 26
Full
Feb 3
Last Quarter
Feb 9
New
Feb 17
First Quarter

Hourly Weather History & Observations

Time (PST) Temp. Windchill Dew Point Humidity Pressure Visibility Wind Dir Wind Speed Gust Speed Precip Events Conditions
12:15 AM 6.8 °F - 5.0 °F 92% 30.37 in 9.0 mi Calm Calm - N/A   Clear
12:35 AM 10.4 °F - 6.8 °F 85% 30.36 in 10.0 mi Calm Calm - N/A   Clear
12:55 AM 6.8 °F - 3.2 °F 85% 30.36 in 10.0 mi Calm Calm - N/A   Clear
1:15 AM 6.8 °F -2.0 °F 5.0 °F 92% 30.37 in 10.0 mi SE 4.6 mph - N/A   Clear
1:35 AM 5.0 °F - 1.4 °F 85% 30.37 in 6.0 mi Calm Calm - N/A   Clear
1:55 AM 8.6 °F - 6.8 °F 92% 30.38 in 7.0 mi Calm Calm - N/A   Clear
2:15 AM 5.0 °F -2.1 °F 1.4 °F 85% 30.39 in 2.5 mi SSW 3.5 mph - N/A   Clear
2:35 AM 6.8 °F - 5.0 °F 92% 30.38 in 9.0 mi Calm Calm - N/A   Clear
2:55 AM 5.0 °F - -0.4 °F 78% 30.38 in 5.0 mi Calm Calm - N/A   Clear
3:15 AM 5.0 °F - -0.4 °F 78% 30.38 in 3.0 mi Calm Calm - N/A   Clear
3:35 AM 6.8 °F -0.1 °F 3.2 °F 85% 30.37 in 3.0 mi SW 3.5 mph - N/A   Clear
3:55 AM 6.8 °F - 3.2 °F 85% 30.37 in 10.0 mi Calm Calm - N/A   Clear
4:15 AM 3.2 °F - -0.4 °F 85% 30.37 in 7.0 mi Calm Calm - N/A   Clear
4:35 AM 5.0 °F -2.1 °F -0.4 °F 78% 30.37 in 3.0 mi ESE 3.5 mph - N/A   Clear
4:55 AM 1.4 °F - -0.4 °F 92% 30.36 in 1.0 mi Calm Calm - N/A   Clear
5:15 AM 5.0 °F -2.1 °F -0.4 °F 78% 30.36 in 10.0 mi NNE 3.5 mph - N/A   Clear
5:35 AM 1.4 °F - -2.2 °F 85% 30.36 in 8.0 mi Calm Calm - N/A   Clear
6:55 AM -0.4 °F - -4.0 °F 85% 30.37 in 10.0 mi Calm Calm - N/A   Partly Cloudy
7:55 AM 1.4 °F - -2.2 °F 85% 30.38 in 10.0 mi Calm Calm - N/A   Clear
8:55 AM 6.8 °F - 1.4 °F 79% 30.40 in 10.0 mi Calm Calm - N/A   Clear
9:45 AM 10.4 °F 4.0 °F 8.6 °F 92% 30.40 in 10.0 mi NE 3.5 mph - N/A   Clear
10:45 AM 15.8 °F - 14.0 °F 93% 30.39 in 10.0 mi Calm Calm - N/A   Clear
11:55 AM 24.8 °F - 14.0 °F 64% 30.34 in 10.0 mi Calm Calm - N/A   Clear
1:55 PM 32.0 °F - 8.6 °F 38% 30.31 in 10.0 mi Calm Calm - N/A   Clear
2:55 PM 35.6 °F - 15.8 °F 44% 30.28 in 10.0 mi Calm Calm - N/A   Clear
3:50 PM 37.4 °F 34.9 °F 15.8 °F 41% 30.27 in 10.0 mi West 3.5 mph - N/A   Clear
4:55 PM 32.0 °F 28.7 °F 15.8 °F 51% 30.27 in 9.0 mi SSW 3.5 mph - N/A   Clear
5:15 PM 30.2 °F - 15.8 °F 55% 30.27 in 10.0 mi Calm Calm - N/A   Clear
5:35 PM 28.4 °F - 14.0 °F 55% 30.28 in 10.0 mi Calm Calm - N/A   Clear
5:55 PM 24.8 °F 17.9 °F 15.8 °F 69% 30.28 in 10.0 mi SE 5.8 mph - N/A   Clear
6:15 PM 24.8 °F - 15.8 °F 69% 30.29 in 10.0 mi Calm Calm - N/A   Clear
6:35 PM 24.8 °F - 15.8 °F 69% 30.29 in 10.0 mi Calm Calm - N/A   Clear
6:55 PM 24.8 °F - 14.0 °F 64% 30.30 in 10.0 mi Calm Calm - N/A   Clear
7:15 PM 23.0 °F - 14.0 °F 68% 30.31 in 10.0 mi Calm Calm - N/A   Clear
7:35 PM 23.0 °F 18.4 °F 14.0 °F 68% 30.31 in 10.0 mi South 3.5 mph - N/A   Clear
7:55 PM 21.2 °F - 12.2 °F 68% 30.30 in 10.0 mi Calm Calm - N/A   Clear
8:15 PM 19.4 °F - 12.2 °F 74% 30.30 in 10.0 mi Calm Calm - N/A   Clear
8:35 PM 19.4 °F 14.3 °F 14.0 °F 80% 30.31 in 10.0 mi ESE 3.5 mph - N/A   Clear
8:55 PM 19.4 °F - 10.4 °F 68% 30.31 in 10.0 mi Calm Calm - N/A   Clear
9:15 PM 23.0 °F 18.4 °F 14.0 °F 68% 30.31 in 10.0 mi SW 3.5 mph - N/A   Clear
9:35 PM 19.4 °F - 12.2 °F 74% 30.32 in 10.0 mi Calm Calm - N/A   Clear
9:55 PM 15.8 °F - 10.4 °F 79% 30.32 in 10.0 mi Calm Calm - N/A   Clear
10:15 PM 17.6 °F - 12.2 °F 79% 30.32 in 10.0 mi Calm Calm - N/A   Clear
10:35 PM 17.6 °F - 12.2 °F 79% 30.33 in 10.0 mi Calm Calm - N/A   Clear
10:55 PM 15.8 °F - 12.2 °F 86% 30.33 in 10.0 mi Calm Calm - N/A   Clear
11:15 PM 15.8 °F - 12.2 °F 86% 30.33 in 10.0 mi Calm Calm - N/A   Clear
11:35 PM 15.8 °F - 12.2 °F 86% 30.33 in 10.0 mi Calm Calm - N/A   Clear
11:55 PM 17.6 °F - 14.0 °F 86% 30.33 in 10.0 mi Calm Calm - N/A   Clear